UGD881 FZAA-HUEN

Flight info

Callsign UGD881
Flight time 2h 23m
Altitude 35000
Route ULVAS2B ULVAS UA613 PISPA/N0456F370 UA613 KIN UL442 KNM UL432 MANDY MANDY1A
Aircraft A321/M-SDE3FGHIRWY/LB1

Departure

Time 2026-04-28 14:45
Airport Ndjili International Airport (FZAA)

Arrival

Time 2026-04-28 17:09
Airport Entebbe International Airport (HUEN)
Time Latitude Longitude Altitude Speed Heading
2026-04-28 14:36 -4.38474 15.44965 1019 ft 0 kts 69°
2026-04-28 14:39 -4.38473 15.44970 1019 ft 2 kts 79°
2026-04-28 14:39 -4.38471 15.44973 1019 ft 1 kts 46°
2026-04-28 14:39 -4.38459 15.44969 1019 ft 6 kts 313°
2026-04-28 14:40 -4.38471 15.44929 1019 ft 4 kts 207°
2026-04-28 14:40 -4.38480 15.44924 1019 ft 5 kts 212°
2026-04-28 14:40 -4.38522 15.44879 1020 ft 6 kts 236°
2026-04-28 14:40 -4.38549 15.44838 1021 ft 8 kts 240°
2026-04-28 14:41 -4.38579 15.44785 1020 ft 10 kts 241°
2026-04-28 14:41 -4.38618 15.44719 1020 ft 12 kts 238°
2026-04-28 14:41 -4.38666 15.44643 1020 ft 13 kts 234°
2026-04-28 14:41 -4.38723 15.44568 1021 ft 14 kts 233°
2026-04-28 14:42 -4.38777 15.44489 1022 ft 14 kts 239°
2026-04-28 14:42 -4.38830 15.44403 1023 ft 14 kts 236°
2026-04-28 14:42 -4.38883 15.44319 1024 ft 15 kts 240°
2026-04-28 14:42 -4.38938 15.44226 1023 ft 15 kts 238°
2026-04-28 14:43 -4.38958 15.44193 1023 ft 3 kts 239°
2026-04-28 14:43 -4.38963 15.44172 1022 ft 4 kts 299°
2026-04-28 14:43 -4.38931 15.44144 1021 ft 8 kts 325°
2026-04-28 14:43 -4.38880 15.44105 1020 ft 11 kts 320°
2026-04-28 14:44 -4.38812 15.44082 1019 ft 10 kts 26°
2026-04-28 14:44 -4.38768 15.44142 1018 ft 14 kts 59°
2026-04-28 14:44 -4.38607 15.44398 1018 ft 81 kts 58°
2026-04-28 14:44 -4.38157 15.45093 1013 ft 155 kts 57°
2026-04-28 14:45 -4.37458 15.46161 1157 ft 202 kts 58°
2026-04-28 14:45 -4.36666 15.47373 1898 ft 216 kts 60°
2026-04-28 14:45 -4.35891 15.48667 2880 ft 222 kts 62°
2026-04-28 14:45 -4.35402 15.49562 3615 ft 222 kts 68°
2026-04-28 14:46 -4.35116 15.51519 4995 ft 219 kts 99°
2026-04-28 14:46 -4.35475 15.52948 5956 ft 212 kts 107°
2026-04-28 14:46 -4.35816 15.54385 6565 ft 217 kts 101°
2026-04-28 14:46 -4.36082 15.55878 7144 ft 224 kts 101°
2026-04-28 14:47 -4.36347 15.57441 7695 ft 233 kts 99°
2026-04-28 14:47 -4.36586 15.59060 8327 ft 240 kts 98°
2026-04-28 14:47 -4.36811 15.60730 8989 ft 246 kts 100°
2026-04-28 14:47 -4.37099 15.62512 9104 ft 276 kts 96°
2026-04-28 14:48 -4.37144 15.64574 9122 ft 311 kts 86°
2026-04-28 14:48 -4.36900 15.66851 9156 ft 344 kts 83°
2026-04-28 14:48 -4.36575 15.69298 9604 ft 362 kts 83°
2026-04-28 14:48 -4.36228 15.71850 10113 ft 379 kts 83°
2026-04-28 14:49 -4.35865 15.74513 10742 ft 393 kts 83°
2026-04-28 14:49 -4.35489 15.77279 11423 ft 405 kts 83°
2026-04-28 14:49 -4.35105 15.80105 12190 ft 416 kts 83°
2026-04-28 14:49 -4.34715 15.82976 13174 ft 419 kts 83°
2026-04-28 14:50 -4.34317 15.85900 13765 ft 433 kts 83°
2026-04-28 14:50 -4.33909 15.88913 14653 ft 438 kts 83°
2026-04-28 14:50 -4.33502 15.91923 15678 ft 438 kts 84°
2026-04-28 14:50 -4.33096 15.94929 16697 ft 437 kts 84°
2026-04-28 14:51 -4.32683 15.97955 17725 ft 436 kts 84°
2026-04-28 14:51 -4.32273 16.00962 18594 ft 437 kts 84°
2026-04-28 14:51 -4.31863 16.03981 19348 ft 440 kts 84°
2026-04-28 14:51 -4.31452 16.07010 20102 ft 442 kts 84°
2026-04-28 14:52 -4.31039 16.10052 20854 ft 443 kts 84°
2026-04-28 14:52 -4.30624 16.13103 21606 ft 443 kts 84°
2026-04-28 14:52 -4.30210 16.16147 22353 ft 442 kts 84°
2026-04-28 14:52 -4.29795 16.19204 23014 ft 443 kts 84°
2026-04-28 14:53 -4.29381 16.22251 23639 ft 442 kts 84°
2026-04-28 14:53 -4.28967 16.25294 24250 ft 442 kts 84°
2026-04-28 14:53 -4.28553 16.28338 24745 ft 444 kts 84°
2026-04-28 14:53 -4.28138 16.31387 25247 ft 444 kts 84°
2026-04-28 14:54 -4.27721 16.34452 25748 ft 445 kts 84°
2026-04-28 14:54 -4.27303 16.37518 26250 ft 445 kts 84°
2026-04-28 14:54 -4.26883 16.40596 26705 ft 442 kts 84°
2026-04-28 14:54 -4.26469 16.43630 27093 ft 441 kts 84°
2026-04-28 14:55 -4.26054 16.46673 27394 ft 441 kts 84°
2026-04-28 14:55 -4.25640 16.49712 27644 ft 442 kts 84°
2026-04-28 14:55 -4.25223 16.52767 27896 ft 444 kts 84°
2026-04-28 14:55 -4.24805 16.55821 28148 ft 445 kts 84°
2026-04-28 14:56 -4.24386 16.58883 28399 ft 446 kts 84°
2026-04-28 14:56 -4.23961 16.61986 28654 ft 447 kts 84°
2026-04-28 14:56 -4.23537 16.65072 28906 ft 447 kts 84°
2026-04-28 14:56 -4.23114 16.68172 29159 ft 448 kts 84°
2026-04-28 14:57 -4.22694 16.71254 29411 ft 448 kts 84°
2026-04-28 14:57 -4.22415 16.73300 29578 ft 448 kts 84°
2026-04-28 14:57 -4.21856 16.77424 29912 ft 448 kts 84°
2026-04-28 14:57 -4.21438 16.80502 30164 ft 447 kts 84°
2026-04-28 14:58 -4.21015 16.83602 30385 ft 448 kts 84°
2026-04-28 14:58 -4.20592 16.86695 30560 ft 449 kts 84°
2026-04-28 14:58 -4.20167 16.89793 30737 ft 450 kts 84°
2026-04-28 14:58 -4.19742 16.92895 30914 ft 451 kts 84°
2026-04-28 14:59 -4.19314 16.96016 30988 ft 455 kts 84°
2026-04-28 14:59 -4.18447 17.02336 31133 ft 462 kts 84°
2026-04-28 15:00 -4.17562 17.08775 31392 ft 466 kts 84°
2026-04-28 15:00 -4.17120 17.11989 31620 ft 466 kts 84°
2026-04-28 15:00 -4.16678 17.15199 31861 ft 466 kts 84°
2026-04-28 15:00 -4.16238 17.18401 32087 ft 465 kts 84°
2026-04-28 15:01 -4.15796 17.21608 32306 ft 465 kts 84°
2026-04-28 15:01 -4.15356 17.24803 32518 ft 465 kts 84°
2026-04-28 15:01 -4.14911 17.28031 32727 ft 465 kts 84°
2026-04-28 15:01 -4.14470 17.31234 32936 ft 465 kts 84°
2026-04-28 15:02 -4.14029 17.34432 33142 ft 465 kts 84°
2026-04-28 15:02 -4.13588 17.37629 33347 ft 465 kts 84°
2026-04-28 15:02 -4.13146 17.40831 33554 ft 464 kts 84°
2026-04-28 15:02 -4.12705 17.44031 33755 ft 464 kts 84°
2026-04-28 15:03 -4.12264 17.47224 33952 ft 464 kts 84°
2026-04-28 15:03 -4.11822 17.50422 34143 ft 464 kts 84°
2026-04-28 15:03 -4.11380 17.53625 34327 ft 464 kts 84°
2026-04-28 15:04 -4.10491 17.60053 34505 ft 469 kts 84°
2026-04-28 15:04 -4.10044 17.63288 34684 ft 469 kts 84°
2026-04-28 15:04 -4.09597 17.66522 34838 ft 469 kts 84°
2026-04-28 15:05 -4.08693 17.73082 34857 ft 477 kts 84°
2026-04-28 15:05 -4.07779 17.79705 34858 ft 485 kts 84°
2026-04-28 15:06 -4.06850 17.86424 34858 ft 491 kts 84°
2026-04-28 15:06 -4.05912 17.93185 34857 ft 491 kts 84°
2026-04-28 15:07 -4.04969 17.99981 34857 ft 491 kts 84°
2026-04-28 15:07 -4.04030 18.06746 34856 ft 491 kts 84°
2026-04-28 15:08 -4.03088 18.13530 34856 ft 491 kts 84°
2026-04-28 15:08 -4.02144 18.20323 34857 ft 491 kts 84°
2026-04-28 15:09 -4.01202 18.27097 34856 ft 491 kts 84°
2026-04-28 15:09 -4.00264 18.33840 34857 ft 491 kts 84°
2026-04-28 15:10 -3.99322 18.40613 34857 ft 491 kts 84°
2026-04-28 15:10 -3.98376 18.47400 34856 ft 491 kts 84°
2026-04-28 15:11 -3.97433 18.54168 34857 ft 491 kts 84°
2026-04-28 15:11 -3.96490 18.60927 34857 ft 491 kts 84°
2026-04-28 15:12 -3.95544 18.67715 34855 ft 491 kts 84°
2026-04-28 15:12 -3.94603 18.74474 34856 ft 491 kts 84°
2026-04-28 15:13 -3.93657 18.81251 34857 ft 491 kts 84°
2026-04-28 15:13 -3.92710 18.88031 34856 ft 491 kts 84°
2026-04-28 15:14 -3.91813 18.94440 34868 ft 492 kts 84°
2026-04-28 15:14 -3.90861 19.01235 35016 ft 492 kts 84°
2026-04-28 15:15 -3.89909 19.08019 35099 ft 493 kts 84°
2026-04-28 15:15 -3.88921 19.14862 35133 ft 495 kts 84°
2026-04-28 15:16 -3.87942 19.21687 35148 ft 498 kts 84°
2026-04-28 15:16 -3.86971 19.28560 35153 ft 498 kts 84°
2026-04-28 15:17 -3.86007 19.35415 35156 ft 498 kts 84°
2026-04-28 15:17 -3.85040 19.42299 35156 ft 498 kts 84°
2026-04-28 15:18 -3.84074 19.49172 35156 ft 498 kts 84°
2026-04-28 15:18 -3.83110 19.56024 35156 ft 498 kts 84°
2026-04-28 15:19 -3.82141 19.62914 35156 ft 498 kts 84°
2026-04-28 15:19 -3.81176 19.69777 35156 ft 498 kts 84°
2026-04-28 15:20 -3.80213 19.76632 35156 ft 498 kts 84°
2026-04-28 15:20 -3.79244 19.83518 35156 ft 498 kts 84°
2026-04-28 15:21 -3.78276 19.90384 35156 ft 498 kts 84°
2026-04-28 15:21 -3.77306 19.97254 35156 ft 498 kts 84°
2026-04-28 15:22 -3.76338 20.04111 35156 ft 498 kts 84°
2026-04-28 15:22 -3.75364 20.11001 35156 ft 498 kts 84°
2026-04-28 15:23 -3.74396 20.17852 35156 ft 498 kts 84°
2026-04-28 15:23 -3.73426 20.24708 35156 ft 498 kts 84°
2026-04-28 15:24 -3.72451 20.31596 35156 ft 498 kts 84°
2026-04-28 15:24 -3.71480 20.38452 35156 ft 498 kts 84°
2026-04-28 15:25 -3.70508 20.45308 35156 ft 498 kts 84°
2026-04-28 15:25 -3.69536 20.52164 35156 ft 498 kts 84°
2026-04-28 15:26 -3.68560 20.59045 35156 ft 498 kts 84°
2026-04-28 15:26 -3.67586 20.65905 35155 ft 498 kts 84°
2026-04-28 15:27 -3.66617 20.72754 35156 ft 498 kts 84°
2026-04-28 15:27 -3.65640 20.79645 35156 ft 498 kts 84°
2026-04-28 15:28 -3.64666 20.86497 35156 ft 498 kts 84°
2026-04-28 15:28 -3.63695 20.93355 35155 ft 500 kts 84°
2026-04-28 15:29 -3.62720 21.00255 35156 ft 502 kts 83°
2026-04-28 15:29 -3.61736 21.07185 35157 ft 503 kts 82°
2026-04-28 15:30 -3.60750 21.14097 35156 ft 502 kts 81°
2026-04-28 15:30 -3.59759 21.20995 35157 ft 501 kts 81°
2026-04-28 15:31 -3.58777 21.27844 35156 ft 501 kts 81°
2026-04-28 15:31 -3.57796 21.34708 35156 ft 501 kts 81°
2026-04-28 15:32 -3.56810 21.41607 35156 ft 501 kts 81°
2026-04-28 15:32 -3.55823 21.48512 35156 ft 501 kts 81°
2026-04-28 15:33 -3.54832 21.55437 35156 ft 501 kts 81°
2026-04-28 15:33 -3.53845 21.62338 35156 ft 501 kts 81°
2026-04-28 15:34 -3.52857 21.69253 35156 ft 501 kts 81°
2026-04-28 15:34 -3.51867 21.76193 35156 ft 501 kts 81°
2026-04-28 15:35 -3.50879 21.83099 35156 ft 501 kts 81°
2026-04-28 15:35 -3.49427 21.93229 35156 ft 501 kts 81°
2026-04-28 15:36 -3.48849 21.97259 35156 ft 501 kts 81°
2026-04-28 15:36 -3.47943 22.03565 35156 ft 501 kts 81°
2026-04-28 15:37 -3.46953 22.10458 35156 ft 501 kts 81°
2026-04-28 15:37 -3.45962 22.17355 35156 ft 501 kts 81°
2026-04-28 15:38 -3.44967 22.24273 35156 ft 501 kts 81°
2026-04-28 15:38 -3.43971 22.31194 35156 ft 501 kts 81°
2026-04-28 15:39 -3.42977 22.38095 35156 ft 501 kts 81°
2026-04-28 15:39 -3.41979 22.45025 35156 ft 501 kts 81°
2026-04-28 15:40 -3.40984 22.51923 35156 ft 501 kts 81°
2026-04-28 15:40 -3.39988 22.58823 35156 ft 501 kts 81°
2026-04-28 15:41 -3.38992 22.65713 35155 ft 501 kts 81°
2026-04-28 15:41 -3.37991 22.72657 35156 ft 501 kts 81°
2026-04-28 15:42 -3.36980 22.79567 35156 ft 501 kts 80°
2026-04-28 15:42 -3.35482 22.86386 35156 ft 501 kts 72°
2026-04-28 15:43 -3.33478 22.93092 35156 ft 502 kts 71°
2026-04-28 15:43 -3.31439 22.99765 35156 ft 503 kts 70°
2026-04-28 15:44 -3.29399 23.06471 35156 ft 503 kts 70°
2026-04-28 15:44 -3.27374 23.13135 35136 ft 502 kts 70°
2026-04-28 15:45 -3.25337 23.19849 35062 ft 503 kts 70°
2026-04-28 15:45 -3.23308 23.26540 35025 ft 503 kts 70°
2026-04-28 15:46 -3.21280 23.33233 35010 ft 503 kts 70°
2026-04-28 15:46 -3.19243 23.39952 35004 ft 503 kts 70°
2026-04-28 15:47 -3.17211 23.46652 35002 ft 503 kts 70°
2026-04-28 15:47 -3.15176 23.53361 35002 ft 503 kts 70°
2026-04-28 15:48 -3.13147 23.60047 35002 ft 503 kts 70°
2026-04-28 15:48 -3.11101 23.66794 34998 ft 503 kts 70°
2026-04-28 15:49 -3.09080 23.73487 35001 ft 503 kts 70°
2026-04-28 15:49 -3.07052 23.80186 35002 ft 503 kts 70°
2026-04-28 15:50 -3.05012 23.86912 35002 ft 503 kts 70°
2026-04-28 15:50 -3.02977 23.93610 35002 ft 503 kts 70°
2026-04-28 15:51 -3.00950 24.00270 35002 ft 502 kts 71°
2026-04-28 15:51 -2.98922 24.06938 35002 ft 500 kts 71°
2026-04-28 15:52 -2.96898 24.13599 35002 ft 498 kts 71°
2026-04-28 15:52 -2.94887 24.20211 35002 ft 497 kts 72°
2026-04-28 15:53 -2.92887 24.26792 35002 ft 495 kts 72°
2026-04-28 15:53 -2.90881 24.33386 35002 ft 492 kts 72°
2026-04-28 15:54 -2.88884 24.39914 35002 ft 490 kts 72°
2026-04-28 15:54 -2.86878 24.46408 35002 ft 488 kts 72°
2026-04-28 15:55 -2.84891 24.52892 35001 ft 488 kts 72°
2026-04-28 15:55 -2.82906 24.59401 35001 ft 488 kts 72°
2026-04-28 15:56 -2.80929 24.65890 35001 ft 488 kts 72°
2026-04-28 15:56 -2.78959 24.72387 35001 ft 488 kts 72°
2026-04-28 15:57 -2.76979 24.78909 35001 ft 488 kts 72°
2026-04-28 15:57 -2.75004 24.85399 35001 ft 488 kts 72°
2026-04-28 15:58 -2.73025 24.91893 35001 ft 488 kts 72°
2026-04-28 15:58 -2.71050 24.98376 35002 ft 488 kts 72°
2026-04-28 15:59 -2.69070 25.04882 35002 ft 488 kts 72°
2026-04-28 15:59 -2.67100 25.11351 35002 ft 486 kts 71°
2026-04-28 16:00 -2.65143 25.17767 35002 ft 483 kts 71°
2026-04-28 16:00 -2.63184 25.24179 35002 ft 481 kts 71°
2026-04-28 16:01 -2.61236 25.30545 35001 ft 481 kts 71°
2026-04-28 16:01 -2.59283 25.36934 35001 ft 481 kts 71°
2026-04-28 16:02 -2.57331 25.43326 35001 ft 481 kts 71°
2026-04-28 16:02 -2.55374 25.49732 35001 ft 481 kts 71°
2026-04-28 16:03 -2.53428 25.56105 35001 ft 481 kts 71°
2026-04-28 16:03 -2.51482 25.62476 35001 ft 481 kts 71°
2026-04-28 16:04 -2.49526 25.68890 35001 ft 481 kts 71°
2026-04-28 16:04 -2.47581 25.75288 35001 ft 481 kts 71°
2026-04-28 16:05 -2.45634 25.81674 35001 ft 481 kts 71°
2026-04-28 16:05 -2.43683 25.88060 35001 ft 481 kts 71°
2026-04-28 16:06 -2.41722 25.94475 35001 ft 481 kts 71°
2026-04-28 16:06 -2.39770 26.00859 35001 ft 481 kts 71°
2026-04-28 16:07 -2.37821 26.07231 35001 ft 481 kts 71°
2026-04-28 16:08 -2.34880 26.16843 35001 ft 481 kts 71°
2026-04-28 16:08 -2.32925 26.23230 35001 ft 481 kts 71°
2026-04-28 16:09 -2.29991 26.32818 35001 ft 481 kts 71°
2026-04-28 16:10 -2.27058 26.42398 35001 ft 481 kts 71°
2026-04-28 16:10 -2.24128 26.51966 35001 ft 481 kts 71°
2026-04-28 16:11 -2.20202 26.64781 35001 ft 481 kts 71°
2026-04-28 16:12 -2.17281 26.74358 35001 ft 481 kts 71°
2026-04-28 16:13 -2.14353 26.83931 35001 ft 481 kts 71°
2026-04-28 16:14 -2.10449 26.96671 35002 ft 480 kts 70°
2026-04-28 16:15 -2.06547 27.09398 35004 ft 478 kts 70°
2026-04-28 16:15 -2.04600 27.15741 35091 ft 477 kts 70°
2026-04-28 16:16 -2.01680 27.25260 35159 ft 476 kts 70°
2026-04-28 16:17 -1.98765 27.34756 35177 ft 476 kts 70°
2026-04-28 16:17 -1.96826 27.41073 35181 ft 476 kts 70°
2026-04-28 16:18 -1.94877 27.47423 35182 ft 476 kts 70°
2026-04-28 16:18 -1.92935 27.53749 35183 ft 476 kts 70°
2026-04-28 16:19 -1.90997 27.60059 35183 ft 476 kts 70°
2026-04-28 16:19 -1.89046 27.66385 35182 ft 476 kts 70°
2026-04-28 16:20 -1.87079 27.72726 35183 ft 476 kts 70°
2026-04-28 16:20 -1.85130 27.79042 35183 ft 476 kts 70°
2026-04-28 16:21 -1.83190 27.85347 35183 ft 476 kts 70°
2026-04-28 16:21 -1.81244 27.91679 35183 ft 476 kts 70°
2026-04-28 16:22 -1.79301 27.98000 35183 ft 476 kts 70°
2026-04-28 16:22 -1.77364 28.04301 35183 ft 476 kts 70°
2026-04-28 16:23 -1.75424 28.10612 35183 ft 476 kts 70°
2026-04-28 16:23 -1.73480 28.16935 35183 ft 476 kts 70°
2026-04-28 16:24 -1.71537 28.23253 35183 ft 476 kts 70°
2026-04-28 16:24 -1.69602 28.29545 35183 ft 476 kts 70°
2026-04-28 16:25 -1.67651 28.35886 35183 ft 476 kts 70°
2026-04-28 16:25 -1.65714 28.42183 35183 ft 476 kts 70°
2026-04-28 16:26 -1.63785 28.48455 35183 ft 476 kts 70°
2026-04-28 16:26 -1.61848 28.54750 35183 ft 476 kts 70°
2026-04-28 16:27 -1.59902 28.61074 35183 ft 476 kts 70°
2026-04-28 16:28 -1.56999 28.70531 35182 ft 476 kts 70°
2026-04-28 16:28 -1.55066 28.76841 35183 ft 476 kts 70°
2026-04-28 16:29 -1.52144 28.86340 35182 ft 478 kts 71°
2026-04-28 16:30 -1.49213 28.95853 35182 ft 481 kts 71°
2026-04-28 16:30 -1.47263 29.02182 35182 ft 483 kts 71°
2026-04-28 16:31 -1.45280 29.08624 35183 ft 483 kts 71°
2026-04-28 16:31 -1.43306 29.15040 35183 ft 483 kts 71°
2026-04-28 16:32 -1.41332 29.21454 35183 ft 483 kts 71°
2026-04-28 16:32 -1.38364 29.31090 35183 ft 483 kts 71°
2026-04-28 16:33 -1.36722 29.36419 35183 ft 483 kts 71°
2026-04-28 16:33 -1.34417 29.43899 35183 ft 483 kts 71°
2026-04-28 16:34 -1.32436 29.50326 35183 ft 483 kts 71°
2026-04-28 16:34 -1.30459 29.56743 35183 ft 483 kts 71°
2026-04-28 16:35 -1.28485 29.63145 35183 ft 483 kts 71°
2026-04-28 16:35 -1.26511 29.69567 35182 ft 483 kts 71°
2026-04-28 16:36 -1.24548 29.75963 35183 ft 483 kts 71°
2026-04-28 16:36 -1.22575 29.82371 35183 ft 483 kts 71°
2026-04-28 16:37 -1.20599 29.88785 35183 ft 483 kts 71°
2026-04-28 16:38 -1.17629 29.98417 35183 ft 483 kts 71°
2026-04-28 16:38 -1.15654 30.04818 35183 ft 483 kts 71°
2026-04-28 16:39 -1.13677 30.11228 35183 ft 483 kts 71°
2026-04-28 16:39 -1.11692 30.17662 35183 ft 483 kts 71°
2026-04-28 16:40 -1.09715 30.24070 35183 ft 483 kts 71°
2026-04-28 16:40 -1.07742 30.30462 35183 ft 483 kts 71°
2026-04-28 16:41 -1.05762 30.36878 35183 ft 484 kts 71°
2026-04-28 16:41 -1.03786 30.43283 35182 ft 484 kts 72°
2026-04-28 16:42 -1.01809 30.49688 35182 ft 484 kts 72°
2026-04-28 16:42 -0.99830 30.56101 35183 ft 484 kts 72°
2026-04-28 16:43 -0.97844 30.62534 35183 ft 484 kts 72°
2026-04-28 16:43 -0.95860 30.68974 34829 ft 486 kts 72°
2026-04-28 16:43 -0.94874 30.72183 34404 ft 485 kts 72°
2026-04-28 16:44 -0.93884 30.75403 33974 ft 487 kts 72°
2026-04-28 16:44 -0.92888 30.78637 33519 ft 486 kts 72°
2026-04-28 16:44 -0.91890 30.81873 33060 ft 483 kts 72°
2026-04-28 16:44 -0.90906 30.85057 32613 ft 480 kts 72°
2026-04-28 16:45 -0.89913 30.88271 32191 ft 488 kts 72°
2026-04-28 16:45 -0.88904 30.91503 31760 ft 486 kts 72°
2026-04-28 16:45 -0.87900 30.94703 31334 ft 484 kts 72°
2026-04-28 16:45 -0.86891 30.97929 30909 ft 490 kts 72°
2026-04-28 16:46 -0.85884 31.01167 30487 ft 487 kts 72°
2026-04-28 16:46 -0.84875 31.04422 30081 ft 486 kts 72°
2026-04-28 16:46 -0.83882 31.07632 29678 ft 484 kts 72°
2026-04-28 16:46 -0.82879 31.10878 29281 ft 494 kts 72°
2026-04-28 16:47 -0.81861 31.14171 28879 ft 499 kts 72°
2026-04-28 16:47 -0.80844 31.17461 28476 ft 497 kts 72°
2026-04-28 16:47 -0.79866 31.20744 28174 ft 485 kts 72°
2026-04-28 16:47 -0.78912 31.23923 27783 ft 475 kts 71°
2026-04-28 16:48 -0.77924 31.27065 27381 ft 471 kts 70°
2026-04-28 16:48 -0.76938 31.30180 26978 ft 470 kts 70°
2026-04-28 16:48 -0.75961 31.33288 26575 ft 467 kts 71°
2026-04-28 16:48 -0.75000 31.36367 26173 ft 463 kts 71°
2026-04-28 16:49 -0.74052 31.39419 25772 ft 460 kts 71°
2026-04-28 16:49 -0.73113 31.42451 25371 ft 456 kts 71°
2026-04-28 16:49 -0.72183 31.45458 24970 ft 453 kts 71°
2026-04-28 16:49 -0.71250 31.48478 24565 ft 450 kts 71°
2026-04-28 16:50 -0.70333 31.51447 24164 ft 447 kts 71°
2026-04-28 16:50 -0.69422 31.54393 23763 ft 444 kts 71°
2026-04-28 16:50 -0.68516 31.57326 23361 ft 440 kts 71°
2026-04-28 16:50 -0.67607 31.60224 22958 ft 437 kts 69°
2026-04-28 16:51 -0.66383 31.62980 22546 ft 433 kts 60°
2026-04-28 16:51 -0.64730 31.65473 22166 ft 430 kts 51°
2026-04-28 16:51 -0.62784 31.67754 21818 ft 428 kts 48°
2026-04-28 16:51 -0.60802 31.69974 21472 ft 433 kts 48°
2026-04-28 16:52 -0.58782 31.72219 21117 ft 437 kts 48°
2026-04-28 16:52 -0.56716 31.74516 20767 ft 447 kts 48°
2026-04-28 16:52 -0.54656 31.76810 20416 ft 445 kts 48°
2026-04-28 16:52 -0.52601 31.79102 20065 ft 443 kts 49°
2026-04-28 16:53 -0.50554 31.81387 19713 ft 441 kts 49°
2026-04-28 16:53 -0.48499 31.83682 19358 ft 440 kts 49°
2026-04-28 16:53 -0.46471 31.85950 19006 ft 438 kts 49°
2026-04-28 16:53 -0.44452 31.88206 18655 ft 436 kts 49°
2026-04-28 16:54 -0.42441 31.90454 18303 ft 434 kts 49°
2026-04-28 16:54 -0.40442 31.92689 17952 ft 432 kts 49°
2026-04-28 16:54 -0.38454 31.94911 17601 ft 431 kts 49°
2026-04-28 16:54 -0.37119 31.96403 17365 ft 430 kts 49°
2026-04-28 16:55 -0.34472 31.99362 16896 ft 428 kts 49°
2026-04-28 16:55 -0.32500 32.01566 16544 ft 426 kts 49°
2026-04-28 16:55 -0.30534 32.03763 16192 ft 424 kts 49°
2026-04-28 16:55 -0.28570 32.05959 15840 ft 423 kts 50°
2026-04-28 16:56 -0.26623 32.08133 15489 ft 421 kts 50°
2026-04-28 16:56 -0.24681 32.10303 15138 ft 420 kts 50°
2026-04-28 16:56 -0.22742 32.12470 14786 ft 419 kts 50°
2026-04-28 16:56 -0.20798 32.14644 14432 ft 417 kts 50°
2026-04-28 16:57 -0.18672 32.16598 14046 ft 419 kts 34°
2026-04-28 16:57 -0.15991 32.17692 13692 ft 423 kts 13°
2026-04-28 16:57 -0.13054 32.17788 13342 ft 426 kts 355°
2026-04-28 16:57 -0.10145 32.17365 13003 ft 425 kts 353°
2026-04-28 16:58 -0.07238 32.16917 12653 ft 423 kts 353°
2026-04-28 16:58 -0.04347 32.16481 12302 ft 422 kts 353°
2026-04-28 16:58 -0.01443 32.16058 11949 ft 420 kts 353°
2026-04-28 16:58 0.01442 32.15648 11598 ft 418 kts 353°
2026-04-28 16:59 0.04282 32.15249 11244 ft 409 kts 353°
2026-04-28 16:59 0.07056 32.14861 10894 ft 400 kts 353°
2026-04-28 16:59 0.09769 32.14484 10543 ft 392 kts 353°
2026-04-28 16:59 0.12450 32.14112 10193 ft 384 kts 353°
2026-04-28 17:00 0.15055 32.13752 10004 ft 372 kts 353°
2026-04-28 17:00 0.17574 32.13452 9987 ft 355 kts 360°
2026-04-28 17:00 0.19898 32.13891 9971 ft 333 kts 27°
2026-04-28 17:00 0.21664 32.15251 9859 ft 315 kts 55°
2026-04-28 17:01 0.22582 32.17161 9667 ft 301 kts 79°
2026-04-28 17:01 0.22931 32.19179 9478 ft 292 kts 83°
2026-04-28 17:01 0.23229 32.21159 9274 ft 285 kts 83°
2026-04-28 17:01 0.23547 32.23089 9070 ft 279 kts 82°
2026-04-28 17:02 0.23881 32.24989 8864 ft 273 kts 82°
2026-04-28 17:02 0.24106 32.26221 8716 ft 270 kts 81°
2026-04-28 17:02 0.24560 32.28657 8391 ft 266 kts 81°
2026-04-28 17:02 0.24900 32.30456 8139 ft 263 kts 81°
2026-04-28 17:03 0.25574 32.33987 7635 ft 258 kts 81°
2026-04-28 17:03 0.25907 32.35728 7397 ft 254 kts 81°
2026-04-28 17:03 0.26232 32.37463 7191 ft 249 kts 84°
2026-04-28 17:04 0.25123 32.40446 6745 ft 233 kts 145°
2026-04-28 17:04 0.23692 32.41044 6713 ft 218 kts 168°
2026-04-28 17:05 0.20715 32.41510 6696 ft 211 kts 172°
2026-04-28 17:05 0.19296 32.41707 6514 ft 198 kts 172°
2026-04-28 17:05 0.17963 32.41893 6228 ft 188 kts 172°
2026-04-28 17:06 0.15555 32.42230 5706 ft 162 kts 172°
2026-04-28 17:06 0.14436 32.42387 5513 ft 163 kts 172°
2026-04-28 17:06 0.12174 32.42700 5121 ft 165 kts 172°
2026-04-28 17:07 0.11038 32.42864 4887 ft 168 kts 171°
2026-04-28 17:07 0.09879 32.43058 4688 ft 168 kts 171°
2026-04-28 17:07 0.08719 32.43216 4428 ft 171 kts 173°
2026-04-28 17:07 0.07555 32.43356 4214 ft 168 kts 173°
2026-04-28 17:08 0.06411 32.43501 3977 ft 165 kts 172°
2026-04-28 17:08 0.05289 32.43659 3779 ft 160 kts 171°
2026-04-28 17:08 0.04317 32.43795 3785 ft 119 kts 172°
2026-04-28 17:08 0.03661 32.43883 3789 ft 83 kts 172°
2026-04-28 17:09 0.03229 32.43946 3779 ft 45 kts 172°
2026-04-28 17:09 0.02966 32.44003 3772 ft 31 kts 149°
2026-04-28 17:09 0.02827 32.44127 3769 ft 22 kts 98°
2026-04-28 17:09 0.02886 32.44164 3770 ft 10 kts 359°
2026-04-28 17:10 0.02954 32.44157 3771 ft 10 kts 352°
2026-04-28 17:10 0.03023 32.44148 3773 ft 10 kts 352°
2026-04-28 17:10 0.03085 32.44139 3776 ft 8 kts 352°
2026-04-28 17:10 0.03141 32.44132 3778 ft 9 kts 352°
2026-04-28 17:11 0.03213 32.44122 3781 ft 12 kts 352°
2026-04-28 17:11 0.03306 32.44110 3785 ft 14 kts 352°
2026-04-28 17:11 0.03402 32.44096 3792 ft 14 kts 352°
2026-04-28 17:11 0.03497 32.44083 3798 ft 14 kts 352°
2026-04-28 17:12 0.03601 32.44068 3801 ft 17 kts 352°
2026-04-28 17:12 0.03725 32.44051 3803 ft 18 kts 352°
2026-04-28 17:12 0.03846 32.44033 3804 ft 18 kts 352°
2026-04-28 17:12 0.03978 32.44014 3800 ft 20 kts 352°
2026-04-28 17:13 0.04123 32.43993 3798 ft 22 kts 352°
2026-04-28 17:13 0.04217 32.44064 3801 ft 18 kts 82°
2026-04-28 17:13 0.04288 32.44133 3804 ft 17 kts 356°
2026-04-28 17:13 0.04381 32.44148 3802 ft 10 kts 71°
2026-04-28 17:14 0.04393 32.44208 3803 ft 2 kts 82°